owner,sensor,date,latitude,longitude,air_pressure(mBar),qcFlag 
TABS,ioos:station:wmo:42046:1,2012-10-01T00:00:00Z,27.8903,-94.0367,1004.88,11111222 
TABS,ioos:station:wmo:42046:1,2012-10-01T00:30:00Z,27.8903,-94.0367,1005.13,11111222 
TABS,ioos:station:wmo:42046:1,2012-10-01T01:00:00Z,27.8903,-94.0367,1005.3,11111222 
TABS,ioos:station:wmo:42046:1,2012-10-01T01:30:00Z,27.8903,-94.0367,1005.58,11111222 
TABS,ioos:station:wmo:42046:1,2012-10-01T02:00:00Z,27.8903,-94.0367,1005.91,11111222 
TABS,ioos:station:wmo:42046:1,2012-10-01T02:30:00Z,27.8903,-94.0367,1006.3,11111222 
TABS,ioos:station:wmo:42046:1,2012-10-01T03:00:00Z,27.8903,-94.0367,1006.83,11111222 
TABS,ioos:station:wmo:42046:1,2012-10-01T03:30:00Z,27.8903,-94.0367,1006.7,11111222 
TABS,ioos:station:wmo:42046:1,2012-10-01T04:00:00Z,27.8903,-94.0367,1006.66,11111222 
TABS,ioos:station:wmo:42046:1,2012-10-01T04:30:00Z,27.8903,-94.0367,1006.79,11111222 
TABS,ioos:station:wmo:42046:1,2012-10-01T05:00:00Z,27.8903,-94.0367,1006.55,11111222 
TABS,ioos:station:wmo:42046:1,2012-10-01T05:30:00Z,27.8903,-94.0367,1006.5,11111222 
TABS,ioos:station:wmo:42046:1,2012-10-01T06:00:00Z,27.8903,-94.0367,1006.9,11111222 
TABS,ioos:station:wmo:42046:1,2012-10-01T06:30:00Z,27.8903,-94.0367,1006.92,11111222 
TABS,ioos:station:wmo:42046:1,2012-10-01T07:00:00Z,27.8903,-94.0367,1006.5,11111222 
TABS,ioos:station:wmo:42046:1,2012-10-01T07:30:00Z,27.8903,-94.0367,1006.63,11111222 
TABS,ioos:station:wmo:42046:1,2012-10-01T08:00:00Z,27.8903,-94.0367,1006.98,11111222 
TABS,ioos:station:wmo:42046:1,2012-10-01T08:30:00Z,27.8903,-94.0367,1006.77,11111222 
TABS,ioos:station:wmo:42046:1,2012-10-01T09:00:00Z,27.8903,-94.0367,1006.76,11111222 
TABS,ioos:station:wmo:42046:1,2012-10-01T09:30:00Z,27.8903,-94.0367,1007.0,11111222 
TABS,ioos:station:wmo:42046:1,2012-10-01T10:00:00Z,27.8903,-94.0367,1006.96,11111222 
TABS,ioos:station:wmo:42046:1,2012-10-01T10:30:00Z,27.8903,-94.0367,1007.28,11111222 
TABS,ioos:station:wmo:42046:1,2012-10-01T11:00:00Z,27.8903,-94.0367,1007.49,11111222 
TABS,ioos:station:wmo:42046:1,2012-10-01T11:30:00Z,27.8903,-94.0367,1007.97,11111222 
TABS,ioos:station:wmo:42046:1,2012-10-01T12:00:00Z,27.8903,-94.0367,1008.12,11111222 
TABS,ioos:station:wmo:42046:1,2012-10-01T12:30:00Z,27.8903,-94.0367,1008.35,11111222 
TABS,ioos:station:wmo:42046:1,2012-10-01T13:00:00Z,27.8903,-94.0367,1008.74,11111222 
TABS,ioos:station:wmo:42046:1,2012-10-01T13:30:00Z,27.8903,-94.0367,1009.26,11111222 
TABS,ioos:station:wmo:42046:1,2012-10-01T14:00:00Z,27.8903,-94.0367,1009.64,11111222 
TABS,ioos:station:wmo:42046:1,2012-10-01T14:30:00Z,27.8903,-94.0367,1009.8,11111222 
TABS,ioos:station:wmo:42046:1,2012-10-01T15:00:00Z,27.8903,-94.0367,1010.08,11111222 
TABS,ioos:station:wmo:42046:1,2012-10-01T15:30:00Z,27.8903,-94.0367,1010.07,11111222 
TABS,ioos:station:wmo:42046:1,2012-10-01T16:00:00Z,27.8903,-94.0367,1010.24,11111222 
TABS,ioos:station:wmo:42046:1,2012-10-01T16:30:00Z,27.8903,-94.0367,1010.16,11111222 
TABS,ioos:station:wmo:42046:1,2012-10-01T17:00:00Z,27.8903,-94.0367,1010.01,11111222 
TABS,ioos:station:wmo:42046:1,2012-10-01T17:30:00Z,27.8903,-94.0367,1009.75,11111222 
TABS,ioos:station:wmo:42046:1,2012-10-01T18:00:00Z,27.8903,-94.0367,1009.55,11111222 
TABS,ioos:station:wmo:42046:1,2012-10-01T18:30:00Z,27.8903,-94.0367,1009.36,11111222 
TABS,ioos:station:wmo:42046:1,2012-10-01T19:00:00Z,27.8903,-94.0367,1008.94,11111222 
TABS,ioos:station:wmo:42046:1,2012-10-01T19:30:00Z,27.8903,-94.0367,1008.88,11111222 
TABS,ioos:station:wmo:42046:1,2012-10-01T20:00:00Z,27.8903,-94.0367,1008.53,11111222 
TABS,ioos:station:wmo:42046:1,2012-10-01T20:30:00Z,27.8903,-94.0367,1008.44,11111222 
TABS,ioos:station:wmo:42046:1,2012-10-01T21:00:00Z,27.8903,-94.0367,1008.45,11111222 
TABS,ioos:station:wmo:42046:1,2012-10-01T21:30:00Z,27.8903,-94.0367,1008.44,11111222 
TABS,ioos:station:wmo:42046:1,2012-10-01T22:00:00Z,27.8903,-94.0367,1008.25,11111222 
TABS,ioos:station:wmo:42046:1,2012-10-01T22:30:00Z,27.8903,-94.0367,1008.45,11111222 
TABS,ioos:station:wmo:42046:1,2012-10-01T23:00:00Z,27.8903,-94.0367,1008.38,11111222 
TABS,ioos:station:wmo:42046:1,2012-10-01T23:30:00Z,27.8903,-94.0367,1008.54,11111222 
TABS,ioos:station:wmo:42046:1,2012-10-02T00:00:00Z,27.8903,-94.0367,1008.37,11111222 
TABS,ioos:station:wmo:42046:1,2012-10-02T00:30:00Z,27.8903,-94.0367,1008.43,11111222 
TABS,ioos:station:wmo:42046:1,2012-10-02T01:00:00Z,27.8903,-94.0367,1008.43,11111222 
TABS,ioos:station:wmo:42046:1,2012-10-02T01:30:00Z,27.8903,-94.0367,1008.86,11111222 
TABS,ioos:station:wmo:42046:1,2012-10-02T02:00:00Z,27.8903,-94.0367,1009.54,11111222 
TABS,ioos:station:wmo:42046:1,2012-10-02T02:30:00Z,27.8903,-94.0367,1009.59,11111222 
TABS,ioos:station:wmo:42046:1,2012-10-02T03:00:00Z,27.8903,-94.0367,1009.76,11111222 
TABS,ioos:station:wmo:42046:1,2012-10-02T03:30:00Z,27.8903,-94.0367,1009.77,11111222 
TABS,ioos:station:wmo:42046:1,2012-10-02T04:00:00Z,27.8903,-94.0367,1009.98,11111222 
TABS,ioos:station:wmo:42046:1,2012-10-02T04:30:00Z,27.8903,-94.0367,1010.33,11111222 
TABS,ioos:station:wmo:42046:1,2012-10-02T05:00:00Z,27.8903,-94.0367,1010.28,11111222 
TABS,ioos:station:wmo:42046:1,2012-10-02T05:30:00Z,27.8903,-94.0367,1010.39,11111222 
TABS,ioos:station:wmo:42046:1,2012-10-02T06:00:00Z,27.8903,-94.0367,1010.36,11111222 
TABS,ioos:station:wmo:42046:1,2012-10-02T06:30:00Z,27.8903,-94.0367,1010.63,11111222 
TABS,ioos:station:wmo:42046:1,2012-10-02T07:00:00Z,27.8903,-94.0367,1010.45,11111222 
TABS,ioos:station:wmo:42046:1,2012-10-02T07:30:00Z,27.8903,-94.0367,1010.49,11111222 
TABS,ioos:station:wmo:42046:1,2012-10-02T08:00:00Z,27.8903,-94.0367,1010.36,11111222 
TABS,ioos:station:wmo:42046:1,2012-10-02T08:30:00Z,27.8903,-94.0367,1010.38,11111222 
TABS,ioos:station:wmo:42046:1,2012-10-02T09:00:00Z,27.8903,-94.0367,1010.3,11111222 
TABS,ioos:station:wmo:42046:1,2012-10-02T09:30:00Z,27.8903,-94.0367,1010.24,11111222 
TABS,ioos:station:wmo:42046:1,2012-10-02T10:00:00Z,27.8903,-94.0367,1010.42,11111222 
TABS,ioos:station:wmo:42046:1,2012-10-02T10:30:00Z,27.8903,-94.0367,1010.59,11111222 
TABS,ioos:station:wmo:42046:1,2012-10-02T11:00:00Z,27.8903,-94.0367,1010.77,11111222 
TABS,ioos:station:wmo:42046:1,2012-10-02T11:30:00Z,27.8903,-94.0367,1011.03,11111222 
TABS,ioos:station:wmo:42046:1,2012-10-02T12:00:00Z,27.8903,-94.0367,1011.29,11111222 
TABS,ioos:station:wmo:42046:1,2012-10-02T12:30:00Z,27.8903,-94.0367,1011.45,11111222 
TABS,ioos:station:wmo:42046:1,2012-10-02T13:00:00Z,27.8903,-94.0367,1011.92,11111222 
TABS,ioos:station:wmo:42046:1,2012-10-02T13:30:00Z,27.8903,-94.0367,1012.16,11111222 
TABS,ioos:station:wmo:42046:1,2012-10-02T14:00:00Z,27.8903,-94.0367,1012.34,11111222 
TABS,ioos:station:wmo:42046:1,2012-10-02T14:30:00Z,27.8903,-94.0367,1012.7,11111222 
TABS,ioos:station:wmo:42046:1,2012-10-02T15:00:00Z,27.8903,-94.0367,1012.92,11111222 
TABS,ioos:station:wmo:42046:1,2012-10-02T15:30:00Z,27.8903,-94.0367,1012.91,11111222 
TABS,ioos:station:wmo:42046:1,2012-10-02T16:00:00Z,27.8903,-94.0367,1013.05,11111222 
TABS,ioos:station:wmo:42046:1,2012-10-02T16:30:00Z,27.8903,-94.0367,1013.02,11111222 
TABS,ioos:station:wmo:42046:1,2012-10-02T17:00:00Z,27.8903,-94.0367,1013.06,11111222 
TABS,ioos:station:wmo:42046:1,2012-10-02T17:30:00Z,27.8903,-94.0367,1013.02,11111222 
TABS,ioos:station:wmo:42046:1,2012-10-02T18:00:00Z,27.8903,-94.0367,1012.71,11111222 
TABS,ioos:station:wmo:42046:1,2012-10-02T18:30:00Z,27.8903,-94.0367,1012.51,11111222 
TABS,ioos:station:wmo:42046:1,2012-10-02T19:00:00Z,27.8903,-94.0367,1012.28,11111222 
TABS,ioos:station:wmo:42046:1,2012-10-02T19:30:00Z,27.8903,-94.0367,1012.16,11111222 
TABS,ioos:station:wmo:42046:1,2012-10-02T20:00:00Z,27.8903,-94.0367,1011.76,11111222 
TABS,ioos:station:wmo:42046:1,2012-10-02T20:30:00Z,27.8903,-94.0367,1011.79,11111222 
TABS,ioos:station:wmo:42046:1,2012-10-02T21:00:00Z,27.8903,-94.0367,1011.87,11111222 
TABS,ioos:station:wmo:42046:1,2012-10-02T21:30:00Z,27.8903,-94.0367,1011.99,11111222 
TABS,ioos:station:wmo:42046:1,2012-10-02T22:00:00Z,27.8903,-94.0367,1012.11,11111222 
TABS,ioos:station:wmo:42046:1,2012-10-02T22:30:00Z,27.8903,-94.0367,1011.96,11111222 
TABS,ioos:station:wmo:42046:1,2012-10-02T23:00:00Z,27.8903,-94.0367,1012.09,11111222 
TABS,ioos:station:wmo:42046:1,2012-10-02T23:30:00Z,27.8903,-94.0367,1012.3,11111222 
TABS,ioos:station:wmo:42046:1,2012-10-03T00:00:00Z,27.8903,-94.0367,1012.44,11111222 
TABS,ioos:station:wmo:42046:1,2012-10-03T00:30:00Z,27.8903,-94.0367,1012.63,11111222 
TABS,ioos:station:wmo:42046:1,2012-10-03T01:00:00Z,27.8903,-94.0367,1012.98,11111222 
TABS,ioos:station:wmo:42046:1,2012-10-03T01:30:00Z,27.8903,-94.0367,1013.36,11111222 
TABS,ioos:station:wmo:42046:1,2012-10-03T02:00:00Z,27.8903,-94.0367,1013.81,11111222 
TABS,ioos:station:wmo:42046:1,2012-10-03T02:30:00Z,27.8903,-94.0367,1014.19,11111222 
TABS,ioos:station:wmo:42046:1,2012-10-03T03:00:00Z,27.8903,-94.0367,1014.54,11111222 
TABS,ioos:station:wmo:42046:1,2012-10-03T03:30:00Z,27.8903,-94.0367,1014.77,11111222 
TABS,ioos:station:wmo:42046:1,2012-10-03T04:00:00Z,27.8903,-94.0367,1014.84,11111222 
TABS,ioos:station:wmo:42046:1,2012-10-03T04:30:00Z,27.8903,-94.0367,1014.75,11111222 
TABS,ioos:station:wmo:42046:1,2012-10-03T05:00:00Z,27.8903,-94.0367,1014.7,11111222 
TABS,ioos:station:wmo:42046:1,2012-10-03T05:30:00Z,27.8903,-94.0367,1014.7,11111222 
TABS,ioos:station:wmo:42046:1,2012-10-03T06:00:00Z,27.8903,-94.0367,1014.77,11111222 
TABS,ioos:station:wmo:42046:1,2012-10-03T06:30:00Z,27.8903,-94.0367,1014.71,11111222 
TABS,ioos:station:wmo:42046:1,2012-10-03T07:00:00Z,27.8903,-94.0367,1014.68,11111222 
TABS,ioos:station:wmo:42046:1,2012-10-03T07:30:00Z,27.8903,-94.0367,1014.7,11111222 
TABS,ioos:station:wmo:42046:1,2012-10-03T08:00:00Z,27.8903,-94.0367,1014.65,11111222 
TABS,ioos:station:wmo:42046:1,2012-10-03T08:30:00Z,27.8903,-94.0367,1014.34,11111222 
TABS,ioos:station:wmo:42046:1,2012-10-03T09:00:00Z,27.8903,-94.0367,1014.31,11111222 
TABS,ioos:station:wmo:42046:1,2012-10-03T09:30:00Z,27.8903,-94.0367,1014.4,11111222 
TABS,ioos:station:wmo:42046:1,2012-10-03T10:00:00Z,27.8903,-94.0367,1014.61,11111222 
TABS,ioos:station:wmo:42046:1,2012-10-03T10:30:00Z,27.8903,-94.0367,1014.77,11111222 
TABS,ioos:station:wmo:42046:1,2012-10-03T11:00:00Z,27.8903,-94.0367,1014.89,11111222 
TABS,ioos:station:wmo:42046:1,2012-10-03T11:30:00Z,27.8903,-94.0367,1015.03,11111222 
TABS,ioos:station:wmo:42046:1,2012-10-03T12:00:00Z,27.8903,-94.0367,1015.2,11111222 
TABS,ioos:station:wmo:42046:1,2012-10-03T12:30:00Z,27.8903,-94.0367,1015.34,11111222 
TABS,ioos:station:wmo:42046:1,2012-10-03T13:00:00Z,27.8903,-94.0367,1015.58,11111222 
TABS,ioos:station:wmo:42046:1,2012-10-03T13:30:00Z,27.8903,-94.0367,1015.95,11111222 
TABS,ioos:station:wmo:42046:1,2012-10-03T14:00:00Z,27.8903,-94.0367,1016.42,11111222 
TABS,ioos:station:wmo:42046:1,2012-10-03T14:30:00Z,27.8903,-94.0367,1016.78,11111222 
TABS,ioos:station:wmo:42046:1,2012-10-03T15:00:00Z,27.8903,-94.0367,1017.03,11111222 
TABS,ioos:station:wmo:42046:1,2012-10-03T15:30:00Z,27.8903,-94.0367,1017.22,11111222 
TABS,ioos:station:wmo:42046:1,2012-10-03T16:00:00Z,27.8903,-94.0367,1017.39,11111222 
TABS,ioos:station:wmo:42046:1,2012-10-03T16:30:00Z,27.8903,-94.0367,1017.55,11111222 
TABS,ioos:station:wmo:42046:1,2012-10-03T17:00:00Z,27.8903,-94.0367,1017.49,11111222 
TABS,ioos:station:wmo:42046:1,2012-10-03T17:30:00Z,27.8903,-94.0367,1017.32,11111222 
TABS,ioos:station:wmo:42046:1,2012-10-03T18:00:00Z,27.8903,-94.0367,1017.14,11111222 
TABS,ioos:station:wmo:42046:1,2012-10-03T18:30:00Z,27.8903,-94.0367,1016.86,11111222 
TABS,ioos:station:wmo:42046:1,2012-10-03T19:00:00Z,27.8903,-94.0367,1016.67,11111222 
TABS,ioos:station:wmo:42046:1,2012-10-03T19:30:00Z,27.8903,-94.0367,1016.44,11111222 
TABS,ioos:station:wmo:42046:1,2012-10-03T20:00:00Z,27.8903,-94.0367,1016.25,11111222 
TABS,ioos:station:wmo:42046:1,2012-10-03T20:30:00Z,27.8903,-94.0367,1016.25,11111222 
TABS,ioos:station:wmo:42046:1,2012-10-03T21:00:00Z,27.8903,-94.0367,1016.42,11111222 
TABS,ioos:station:wmo:42046:1,2012-10-03T21:30:00Z,27.8903,-94.0367,1016.45,11111222 
TABS,ioos:station:wmo:42046:1,2012-10-03T22:00:00Z,27.8903,-94.0367,1016.38,11111222 
TABS,ioos:station:wmo:42046:1,2012-10-03T22:30:00Z,27.8903,-94.0367,1016.57,11111222 
TABS,ioos:station:wmo:42046:1,2012-10-03T23:00:00Z,27.8903,-94.0367,1016.74,11111222 
TABS,ioos:station:wmo:42046:1,2012-10-03T23:30:00Z,27.8903,-94.0367,1016.74,11111222 
TABS,ioos:station:wmo:42046:1,2012-10-04T00:00:00Z,27.8903,-94.0367,1016.93,11111222 
TABS,ioos:station:wmo:42046:1,2012-10-04T00:30:00Z,27.8903,-94.0367,1017.07,11111222 
TABS,ioos:station:wmo:42046:1,2012-10-04T01:00:00Z,27.8903,-94.0367,1017.44,11111222 
TABS,ioos:station:wmo:42046:1,2012-10-04T01:30:00Z,27.8903,-94.0367,1017.78,11111222 
TABS,ioos:station:wmo:42046:1,2012-10-04T02:00:00Z,27.8903,-94.0367,1018.11,11111222 
TABS,ioos:station:wmo:42046:1,2012-10-04T02:30:00Z,27.8903,-94.0367,1018.42,11111222 
TABS,ioos:station:wmo:42046:1,2012-10-04T03:00:00Z,27.8903,-94.0367,1018.62,11111222 
TABS,ioos:station:wmo:42046:1,2012-10-04T03:30:00Z,27.8903,-94.0367,1018.87,11111222 
TABS,ioos:station:wmo:42046:1,2012-10-04T04:00:00Z,27.8903,-94.0367,1018.86,11111222 
TABS,ioos:station:wmo:42046:1,2012-10-04T04:30:00Z,27.8903,-94.0367,1018.83,11111222 
TABS,ioos:station:wmo:42046:1,2012-10-04T05:00:00Z,27.8903,-94.0367,1018.67,11111222 
TABS,ioos:station:wmo:42046:1,2012-10-04T05:30:00Z,27.8903,-94.0367,1018.54,11111222 
TABS,ioos:station:wmo:42046:1,2012-10-04T06:00:00Z,27.8903,-94.0367,1018.33,11111222 
TABS,ioos:station:wmo:42046:1,2012-10-04T06:30:00Z,27.8903,-94.0367,1018.36,11111222 
TABS,ioos:station:wmo:42046:1,2012-10-04T07:00:00Z,27.8903,-94.0367,1018.29,11111222 
TABS,ioos:station:wmo:42046:1,2012-10-04T07:30:00Z,27.8903,-94.0367,1018.38,11111222 
TABS,ioos:station:wmo:42046:1,2012-10-04T08:00:00Z,27.8903,-94.0367,1018.32,11111222 
TABS,ioos:station:wmo:42046:1,2012-10-04T08:30:00Z,27.8903,-94.0367,1018.33,11111222 
TABS,ioos:station:wmo:42046:1,2012-10-04T09:00:00Z,27.8903,-94.0367,1018.6,11111222 
TABS,ioos:station:wmo:42046:1,2012-10-04T09:30:00Z,27.8903,-94.0367,1018.75,11111222 
TABS,ioos:station:wmo:42046:1,2012-10-04T10:00:00Z,27.8903,-94.0367,1018.97,11111222 
TABS,ioos:station:wmo:42046:1,2012-10-04T10:30:00Z,27.8903,-94.0367,1019.22,11111222 
TABS,ioos:station:wmo:42046:1,2012-10-04T11:00:00Z,27.8903,-94.0367,1019.54,11111222 
TABS,ioos:station:wmo:42046:1,2012-10-04T11:30:00Z,27.8903,-94.0367,1019.79,11111222 
TABS,ioos:station:wmo:42046:1,2012-10-04T12:00:00Z,27.8903,-94.0367,1019.92,11111222 
TABS,ioos:station:wmo:42046:1,2012-10-04T12:30:00Z,27.8903,-94.0367,1020.3,11111222 
TABS,ioos:station:wmo:42046:1,2012-10-04T13:00:00Z,27.8903,-94.0367,1020.66,11111222 
TABS,ioos:station:wmo:42046:1,2012-10-04T13:30:00Z,27.8903,-94.0367,1020.81,11111222 
TABS,ioos:station:wmo:42046:1,2012-10-04T14:00:00Z,27.8903,-94.0367,1021.25,11111222 
TABS,ioos:station:wmo:42046:1,2012-10-04T14:30:00Z,27.8903,-94.0367,1021.32,11111222 
TABS,ioos:station:wmo:42046:1,2012-10-04T15:00:00Z,27.8903,-94.0367,1021.63,11111222 
TABS,ioos:station:wmo:42046:1,2012-10-04T15:30:00Z,27.8903,-94.0367,1021.56,11111222 
TABS,ioos:station:wmo:42046:1,2012-10-04T16:00:00Z,27.8903,-94.0367,1021.78,11111222 
TABS,ioos:station:wmo:42046:1,2012-10-04T16:30:00Z,27.8903,-94.0367,1021.65,11111222 
TABS,ioos:station:wmo:42046:1,2012-10-04T17:00:00Z,27.8903,-94.0367,1021.68,11111222 
TABS,ioos:station:wmo:42046:1,2012-10-04T17:30:00Z,27.8903,-94.0367,1021.47,11111222 
TABS,ioos:station:wmo:42046:1,2012-10-04T18:00:00Z,27.8903,-94.0367,1021.18,11111222 
TABS,ioos:station:wmo:42046:1,2012-10-04T18:30:00Z,27.8903,-94.0367,1020.98,11111222 
TABS,ioos:station:wmo:42046:1,2012-10-04T19:00:00Z,27.8903,-94.0367,1020.64,11111222 
TABS,ioos:station:wmo:42046:1,2012-10-04T19:30:00Z,27.8903,-94.0367,1020.47,11111222 
TABS,ioos:station:wmo:42046:1,2012-10-04T20:00:00Z,27.8903,-94.0367,1020.31,11111222 
TABS,ioos:station:wmo:42046:1,2012-10-04T20:30:00Z,27.8903,-94.0367,1020.17,11111222 
TABS,ioos:station:wmo:42046:1,2012-10-04T21:00:00Z,27.8903,-94.0367,1020.04,11111222 
TABS,ioos:station:wmo:42046:1,2012-10-04T21:30:00Z,27.8903,-94.0367,1019.98,11111222 
TABS,ioos:station:wmo:42046:1,2012-10-04T22:00:00Z,27.8903,-94.0367,1019.83,11111222 
TABS,ioos:station:wmo:42046:1,2012-10-04T22:30:00Z,27.8903,-94.0367,1019.73,11111222 
TABS,ioos:station:wmo:42046:1,2012-10-04T23:00:00Z,27.8903,-94.0367,1019.98,11111222 
TABS,ioos:station:wmo:42046:1,2012-10-04T23:30:00Z,27.8903,-94.0367,1019.97,11111222 
TABS,ioos:station:wmo:42046:1,2012-10-05T00:00:00Z,27.8903,-94.0367,1019.77,11111222 
TABS,ioos:station:wmo:42046:1,2012-10-05T00:30:00Z,27.8903,-94.0367,1020.02,11111222 
TABS,ioos:station:wmo:42046:1,2012-10-05T01:00:00Z,27.8903,-94.0367,1020.2,11111222 
TABS,ioos:station:wmo:42046:1,2012-10-05T01:30:00Z,27.8903,-94.0367,1020.33,11111222 
TABS,ioos:station:wmo:42046:1,2012-10-05T02:00:00Z,27.8903,-94.0367,1020.34,11111222 
TABS,ioos:station:wmo:42046:1,2012-10-05T02:30:00Z,27.8903,-94.0367,1020.5,11111222 
TABS,ioos:station:wmo:42046:1,2012-10-05T03:00:00Z,27.8903,-94.0367,1020.45,11111222 
TABS,ioos:station:wmo:42046:1,2012-10-05T03:30:00Z,27.8903,-94.0367,1020.47,11111222 
TABS,ioos:station:wmo:42046:1,2012-10-05T04:00:00Z,27.8903,-94.0367,1020.43,11111222 
TABS,ioos:station:wmo:42046:1,2012-10-05T04:30:00Z,27.8903,-94.0367,1020.27,11111222 
TABS,ioos:station:wmo:42046:1,2012-10-05T05:00:00Z,27.8903,-94.0367,1020.01,11111222 
TABS,ioos:station:wmo:42046:1,2012-10-05T05:30:00Z,27.8903,-94.0367,1019.78,11111222 
TABS,ioos:station:wmo:42046:1,2012-10-05T06:00:00Z,27.8903,-94.0367,1019.61,11111222 
TABS,ioos:station:wmo:42046:1,2012-10-05T06:30:00Z,27.8903,-94.0367,1019.37,11111222 
TABS,ioos:station:wmo:42046:1,2012-10-05T07:00:00Z,27.8903,-94.0367,1019.25,11111222 
TABS,ioos:station:wmo:42046:1,2012-10-05T07:30:00Z,27.8903,-94.0367,1019.14,11111222 
TABS,ioos:station:wmo:42046:1,2012-10-05T08:00:00Z,27.8903,-94.0367,1018.99,11111222 
TABS,ioos:station:wmo:42046:1,2012-10-05T08:30:00Z,27.8903,-94.0367,1018.75,11111222 
TABS,ioos:station:wmo:42046:1,2012-10-05T09:00:00Z,27.8903,-94.0367,1018.67,11111222 
TABS,ioos:station:wmo:42046:1,2012-10-05T09:30:00Z,27.8903,-94.0367,1018.7,11111222 
TABS,ioos:station:wmo:42046:1,2012-10-05T10:00:00Z,27.8903,-94.0367,1018.86,11111222 
TABS,ioos:station:wmo:42046:1,2012-10-05T10:30:00Z,27.8903,-94.0367,1018.78,11111222 
TABS,ioos:station:wmo:42046:1,2012-10-05T11:00:00Z,27.8903,-94.0367,1019.09,11111222 
TABS,ioos:station:wmo:42046:1,2012-10-05T11:30:00Z,27.8903,-94.0367,1019.15,11111222 
TABS,ioos:station:wmo:42046:1,2012-10-05T12:00:00Z,27.8903,-94.0367,1019.36,11111222 
TABS,ioos:station:wmo:42046:1,2012-10-05T12:30:00Z,27.8903,-94.0367,1019.43,11111222 
TABS,ioos:station:wmo:42046:1,2012-10-05T13:00:00Z,27.8903,-94.0367,1019.57,11111222 
TABS,ioos:station:wmo:42046:1,2012-10-05T13:30:00Z,27.8903,-94.0367,1019.59,11111222 
TABS,ioos:station:wmo:42046:1,2012-10-05T14:00:00Z,27.8903,-94.0367,1019.78,11111222 
TABS,ioos:station:wmo:42046:1,2012-10-05T14:30:00Z,27.8903,-94.0367,1020.08,11111222 
TABS,ioos:station:wmo:42046:1,2012-10-05T15:00:00Z,27.8903,-94.0367,1020.03,11111222 
TABS,ioos:station:wmo:42046:1,2012-10-05T15:30:00Z,27.8903,-94.0367,1020.03,11111222 
TABS,ioos:station:wmo:42046:1,2012-10-05T16:00:00Z,27.8903,-94.0367,1020.16,11111222 
TABS,ioos:station:wmo:42046:1,2012-10-05T16:30:00Z,27.8903,-94.0367,1020.01,11111222 
TABS,ioos:station:wmo:42046:1,2012-10-05T17:00:00Z,27.8903,-94.0367,1019.75,11111222 
TABS,ioos:station:wmo:42046:1,2012-10-05T17:30:00Z,27.8903,-94.0367,1019.38,11111222 
TABS,ioos:station:wmo:42046:1,2012-10-05T18:00:00Z,27.8903,-94.0367,1018.95,11111222 
TABS,ioos:station:wmo:42046:1,2012-10-05T18:30:00Z,27.8903,-94.0367,1018.33,11111222 
TABS,ioos:station:wmo:42046:1,2012-10-05T19:00:00Z,27.8903,-94.0367,1017.92,11111222 
TABS,ioos:station:wmo:42046:1,2012-10-05T19:30:00Z,27.8903,-94.0367,1017.63,11111222 
TABS,ioos:station:wmo:42046:1,2012-10-05T20:00:00Z,27.8903,-94.0367,1017.11,11111222 
TABS,ioos:station:wmo:42046:1,2012-10-05T20:30:00Z,27.8903,-94.0367,1016.76,11111222 
TABS,ioos:station:wmo:42046:1,2012-10-05T21:00:00Z,27.8903,-94.0367,1016.63,11111222 
TABS,ioos:station:wmo:42046:1,2012-10-05T21:30:00Z,27.8903,-94.0367,1016.57,11111222 
TABS,ioos:station:wmo:42046:1,2012-10-05T22:00:00Z,27.8903,-94.0367,1016.46,11111222 
TABS,ioos:station:wmo:42046:1,2012-10-05T22:30:00Z,27.8903,-94.0367,1016.3,11111222 
TABS,ioos:station:wmo:42046:1,2012-10-05T23:00:00Z,27.8903,-94.0367,1016.36,11111222 
TABS,ioos:station:wmo:42046:1,2012-10-05T23:30:00Z,27.8903,-94.0367,1016.4,11111222 
TABS,ioos:station:wmo:42046:1,2012-10-06T00:00:00Z,27.8903,-94.0367,1016.39,11111222 
TABS,ioos:station:wmo:42046:1,2012-10-06T00:30:00Z,27.8903,-94.0367,1016.33,11111222 
TABS,ioos:station:wmo:42046:1,2012-10-06T01:00:00Z,27.8903,-94.0367,1016.22,11111222 
TABS,ioos:station:wmo:42046:1,2012-10-06T01:30:00Z,27.8903,-94.0367,1016.25,11111222 
TABS,ioos:station:wmo:42046:1,2012-10-06T02:00:00Z,27.8903,-94.0367,1016.43,11111222 
TABS,ioos:station:wmo:42046:1,2012-10-06T02:30:00Z,27.8903,-94.0367,1016.55,11111222 
TABS,ioos:station:wmo:42046:1,2012-10-06T03:00:00Z,27.8903,-94.0367,1016.46,11111222 
TABS,ioos:station:wmo:42046:1,2012-10-06T03:30:00Z,27.8903,-94.0367,1016.4,11111222 
TABS,ioos:station:wmo:42046:1,2012-10-06T04:00:00Z,27.8903,-94.0367,1016.13,11111222 
TABS,ioos:station:wmo:42046:1,2012-10-06T04:30:00Z,27.8903,-94.0367,1016.22,11111222 
TABS,ioos:station:wmo:42046:1,2012-10-06T05:00:00Z,27.8903,-94.0367,1015.93,11111222 
TABS,ioos:station:wmo:42046:1,2012-10-06T05:30:00Z,27.8903,-94.0367,1015.84,11111222 
TABS,ioos:station:wmo:42046:1,2012-10-06T06:00:00Z,27.8903,-94.0367,1015.8,11111222 
TABS,ioos:station:wmo:42046:1,2012-10-06T06:30:00Z,27.8903,-94.0367,1015.64,11111222 
TABS,ioos:station:wmo:42046:1,2012-10-06T07:00:00Z,27.8903,-94.0367,1015.58,11111222 
TABS,ioos:station:wmo:42046:1,2012-10-06T07:30:00Z,27.8903,-94.0367,1015.41,11111222 
TABS,ioos:station:wmo:42046:1,2012-10-06T08:00:00Z,27.8903,-94.0367,1015.28,11111222 
TABS,ioos:station:wmo:42046:1,2012-10-06T08:30:00Z,27.8903,-94.0367,1015.02,11111222 
TABS,ioos:station:wmo:42046:1,2012-10-06T09:00:00Z,27.8903,-94.0367,1015.13,11111222 
TABS,ioos:station:wmo:42046:1,2012-10-06T09:30:00Z,27.8903,-94.0367,1015.23,11111222 
TABS,ioos:station:wmo:42046:1,2012-10-06T10:00:00Z,27.8903,-94.0367,1015.38,11111222 
TABS,ioos:station:wmo:42046:1,2012-10-06T10:30:00Z,27.8903,-94.0367,1015.47,11111222 
TABS,ioos:station:wmo:42046:1,2012-10-06T11:00:00Z,27.8903,-94.0367,1015.63,11111222 
TABS,ioos:station:wmo:42046:1,2012-10-06T11:30:00Z,27.8903,-94.0367,1015.82,11111222 
TABS,ioos:station:wmo:42046:1,2012-10-06T12:00:00Z,27.8903,-94.0367,1015.81,11111222 
TABS,ioos:station:wmo:42046:1,2012-10-06T12:30:00Z,27.8903,-94.0367,1015.96,11111222 
TABS,ioos:station:wmo:42046:1,2012-10-06T13:00:00Z,27.8903,-94.0367,1016.25,11111222 
TABS,ioos:station:wmo:42046:1,2012-10-06T13:30:00Z,27.8903,-94.0367,1016.3,11111222 
TABS,ioos:station:wmo:42046:1,2012-10-06T14:00:00Z,27.8903,-94.0367,1016.51,11111222 
TABS,ioos:station:wmo:42046:1,2012-10-06T14:30:00Z,27.8903,-94.0367,1016.76,11111222 
TABS,ioos:station:wmo:42046:1,2012-10-06T15:00:00Z,27.8903,-94.0367,1016.89,11111222 
TABS,ioos:station:wmo:42046:1,2012-10-06T15:30:00Z,27.8903,-94.0367,1016.93,11111222 
TABS,ioos:station:wmo:42046:1,2012-10-06T16:00:00Z,27.8903,-94.0367,1016.92,11111222 
TABS,ioos:station:wmo:42046:1,2012-10-06T16:30:00Z,27.8903,-94.0367,1016.88,11111222 
TABS,ioos:station:wmo:42046:1,2012-10-06T17:00:00Z,27.8903,-94.0367,1016.69,11111222 
TABS,ioos:station:wmo:42046:1,2012-10-06T17:30:00Z,27.8903,-94.0367,1016.32,11111222 
TABS,ioos:station:wmo:42046:1,2012-10-06T18:00:00Z,27.8903,-94.0367,1015.97,11111222 
TABS,ioos:station:wmo:42046:1,2012-10-06T18:30:00Z,27.8903,-94.0367,1015.47,11111222 